Location: Unspecified
(0.0000°N, 0.0000°E)
Time: 09:27:08
(UTC+00:00)

NNS O-29 - Pass Details

Date: 13 August 2024
Orbit: 1013 x 1173 km, 90.4° (Epoch: 07 September)

Event Time Altitude Azimuth Distance (km) Brightness Sun altitude
Rises 18:55:40 0° 352° (N) 3,784 10.4 -12.3°
Reaches altitude 10° 18:58:18 10° 347° (NNW) 2,817 9.8 -13.0°
Maximum altitude 19:04:22 47° 275° (W) 1,317 8.2 -14.4°
Drops below altitude 10° 19:10:25 10° 202° (SSW) 2,794 9.5 -15.9°
Sets 19:13:02 0° 196° (SSW) 3,750 10.1 -16.5°
